BREEZE-KM R/B

基本信息
目录编号:
38737
目录名称:
BREEZE-KM R/B
国际标识:
2012-041E
轨道中心:
EARTH
物体状态:
在轨
发射日期:
2012-07-28 UTC
国别:
俄罗斯(独联体) (CIS)
轨道信息
数据来源: 国际轨道数据
星历时间: 2026-09-14T09:49:10+0800
半长轴: 7712.181km
偏心率: 0.0226273
轨道倾角: 82.478°
近地点辐角: 48.464°
升交点赤经: 135.157°
平近点角: 313.563°
近地点: 1159.538km
远地点: 1508.55km
周期: 112.338分钟
每日圈数: 12.818494
详细信息
发射场:
PKMTR
轨道高度:
LEO
数据来源:
AOE Integration Group
参考系:
TEME
时间系统:
UTC
历元类型:
SGP4
2D轨道图
3D轨道图
轨道高度分析图
轨道倾角分析图
轨道综合分析图
查看轨道综合分析图